Regional Weather Roundup
Issued by NWS Pendleton, OR

Home | Current Version | Previous Version | Text Only | Print | Product List | Glossary On
Versions: 1 2 3 4 5 6 7 8 9 10 11 12 13 14 15 16 17 18 19 20 21 22 23 24 25 26 27 28 29 30 31 32 33 34 35 36 37 38 39 40 41 42 43 44 45 46 47 48 49 50
000
ASUS46 KPDT 031125
RWRPDT
PENDLETON REGIONAL WEATHER ROUNDUP
NATIONAL WEATHER SERVICE PENDLETON OREGON
400 AM PDT SUN MAY 3 2015

NOTE: FAIR INDICATES FEW OR NO CLOUDS BELOW 12,000 FEET WITH NO
SIGNIFICANT WEATHER AND/OR OBSTRUCTIONS TO VISIBILITY.

# INDICATES UNOFFICIAL STATION AND DATA

WAZ520-031210-
EAST SLOPES OF WASHINGTON CASCADES

CITY            SKY/WX      TMP DP  RH  WIND    PRES   REMARKS
#BULLFROG 2SW   N/A         33  26  75  S2      27.58S
#BUMPING DAM    N/A         36  N/A N/A NE3     N/A
#CLE ELUM HS    N/A         37  32  82  CALM    29.93R
#CLE ELUM LAKE  N/A         42  32  67  CALM    29.92R
#CLIFFDEL 2NW   N/A         34  28  78  CALM    N/A
#GLENWOOD       N/A         33  31  92  CALM    29.94R
#MANASTASH CYN  N/A         38  26  62  CALM    29.95S
#NELSON         N/A         34  28  78  CALM    29.97S
#NELSON 3SW     N/A         36  25  64  CALM    30.15S
#NILE           N/A         37  31  79  W1      29.23R
#RONALD 2NW     N/A         40  27  59  CALM    29.85S
#SNOWDEN        N/A         37  29  72  CALM    N/A
#TEANAWAY 4NE   N/A         34  32  92  CALM    N/A
#TROUT LAKE 1NE N/A         40  36  85  CALM    29.92S
$$

WAZ521-031210-
SIMCOE HIGHLANDS

CITY            SKY/WX      TMP DP  RH  WIND    PRES   REMARKS
#BICKLETON HS   N/A         43  17  35  CALM    N/A
#CENTERVILLE 4W N/A         46  35  65  N1      29.69S
#GOLDENDALE     N/A         39  29  67  E2      N/A
#GOLDENDALE 1NE N/A         39  21  48  N3      N/A
#GOLDENDALE 5WNWN/A         40  32  73  CALM    29.91R
#GOODNOE HILLS  N/A         51  26  37  NW3     N/A
#LYLE 6NE       N/A         46  40  79  CALM    29.89S
$$

WAZ026-031210-
KITTITAS VALLEY

CITY            SKY/WX      TMP DP  RH  WIND    PRES   REMARKS
ELLENSBURG AP   CLEAR       40  32  73  NE6     29.96R
YTC-OPS AREA    CLEAR       49  27  42  N6      29.94R
#ELLENSBURG CWU N/A         43  34  70  CALM    29.89R
#ELLENSBURG 3NE N/A         36  30  79  N2      29.97R
#ELLENSBURG 1E  N/A         38  30  73  CALM    N/A
#KITTITAS 3S    N/A         34  31  89  CALM    29.94R
#THORP 6N       N/A         40  32  73  N5      29.95S
$$

WAZ027-031210-
YAKIMA VALLEY

CITY            SKY/WX      TMP DP  RH  WIND    PRES   REMARKS
SUNNYSIDE AP    CLEAR       37  32  82  CALM    29.94R
YAKIMA AIRPORT  CLEAR       48  34  58  W8      29.95S
#DONALD 2NE     N/A         50  21  32  CALM    28.78R
#GRANDVIEW      N/A         42  34  73  CALM    29.94R
#MABTON         N/A         43  27  53  S1      29.93R
#NACHES 2SW     N/A         46  36  68  W5      29.94S
#OUTLOOK DOT    N/A         N/A N/A N/A NW7     N/A
#SELAH 8E       N/A         38  24  57  SE5     N/A
#TERRACE HTS    N/A         45  32  60  CALM    29.88R
#TOPPENISH      N/A         47  34  60  W2      29.84R
#WAPATO 4NE     N/A         50  21  32  CALM    28.78R
#WEST VALLEY    N/A         44  34  68  CALM    29.91S
#WHITE SWAN 5E  N/A         40  33  76  CALM    29.93S
$$

WAZ028-031210-
LOWER COLUMBIA BASIN...WASHINGTON

CITY            SKY/WX      TMP DP  RH  WIND    PRES   REMARKS
PASCO           CLEAR       38  32  79  W5      29.95R
RICHLAND AWOS   CLEAR       39  30  70  CALM    29.94R
#BASIN CITY 5SW N/A         40  34  79  E2      29.93S
#BENTON CITY    N/A         43  30  60  CALM    29.85R
#CONNELL 5N     N/A         42  27  55  N1      29.92R
#CONNELL 5NW    N/A         39  29  67  CALM    29.89R
#ELTOPIA 6NW    N/A         45  32  60  NE3     28.90S
#KAHLOTUS       N/A         42  27  55  S7      29.92R
#KENNEWICK      N/A         33  26  75  S2      27.58S
#KENNEWICK 3S   N/A         49  29  46  CALM    29.93R
#PATERSON       N/A         44  35  70  NE1     29.91R
#PROSSER        N/A         54  23  30  SW3     29.92R
#SAGEMOOR 2W    N/A         42  33  70  W2      29.77R
#TOUCHET 2S     N/A         32  29  89  CALM    29.92R
#WEST PASCO     N/A         43  31  62  E1      29.94R
$$

WAZ029-031210-
FOOTHILLS OF THE BLUES...WASHINGTON

CITY            SKY/WX      TMP DP  RH  WIND    PRES   REMARKS
WALLA WALLA AP  CLEAR       46  30  53  E3      29.92R
#DAYTON SCHOOL  N/A         41  23  48  N3      29.95S
#LOWDEN 2SE     N/A         35  33  92  E1      29.90R
#PLEASANT VIEW 1N/A         45  29  53  CALM    29.94S
#PRESCOTT       N/A         40  32  73  CALM    29.91R
#SUDBURY        N/A         34  N/A N/A CALM    N/A
#WHITMAN COLLEGEN/A         48  34  58  SE2     29.96R
#WAITSBURG 5S   N/A         47  28  47  CALM    30.00R
#WAITSBURG 8N   N/A         36   9  32  N1      29.79R
#WALLA WALLA 5E N/A         41  32  70  E1      N/A
#WALLA WALLA U  N/A         43  35  73  CALM    29.91R
#WHITMAN MISSIONN/A         38  35  89  CALM    29.93S
$$

WAZ030-031210-
BLUE MOUNTAINS...WASHINGTON

CITY            SKY/WX      TMP DP  RH  WIND    PRES   REMARKS
#DIXIE 5SE      N/A         53  14  21  CALM    29.87R
$$

ORZ009-041-WAZ024-031210-
COLUMBIA RIVER GORGE

CITY            SKY/WX      TMP DP  RH  WIND    PRES   REMARKS
HOOD RIVER AP   CLEAR       43  37  79  S3      29.96R
THE DALLES AP   CLEAR       47  39  74  SE6     29.94R
#ARLINGTON AIRPON/A         47  33  58  W5      N/A
#ARLINGTON HS   N/A         43  29  57  CALM    29.84R
#CELILO DOT     N/A         51  40  66  SW2     N/A
#MOSIER 1S      N/A         46  33  60  CALM    29.94S
#MURDOCK        N/A         53  45  74  W7      29.95R
#RUFUS DOT      N/A         49  37  63  NE3     N/A

$$

ORZ510-031210-
NORTH CENTRAL OREGON

CITY            SKY/WX      TMP DP  RH  WIND    PRES   REMARKS
#CHENOWITH 1W   N/A         46  39  76  NW13    N/A    WCI 40
#COW CYN RST AREN/A         50  26  39  N2      N/A
#DUFUR 9E       N/A         51  38  61  CALM    29.94S
#GRASS VALLEY 1SN/A         45  34  65  CALM    29.92R
#KENT DOT       N/A         48  28  46  N3      N/A
#MAUPIN SCHOOL  N/A         45  29  53  CALM    29.96S
#MORO SCHOOL    N/A         66  38  36  CALM    30.18S
#SHANIKO 5WSW   N/A         48  22  35  NE8     N/A
#SHANIKO 4NW    N/A         49  25  39  NE3     29.94F
#TYGH VALLEY 2NEN/A         41  34  76  NE2     29.92S
#WAPANITIA AIRPON/A         42  35  76  CALM    29.92S
#WASCO DOT      N/A         35  32  89  SE2     N/A
#WASCO AIRPORT  N/A         47  36  65  W3      N/A
#WASCO 5NE      N/A         43  37  79  CALM    29.91S
$$

ORZ511-031210-
CENTRAL OREGON

CITY            SKY/WX      TMP DP  RH  WIND    PRES   REMARKS
BEND AIRPORT    CLEAR       39  27  62  CALM    29.94F
MADRAS AIRPORT  CLEAR       36  30  79  SE7     29.95F
PRINEVILLE AP   CLEAR       34  23  64  CALM    29.94F
REDMOND AIRPORT CLEAR       34  26  72  S5      29.94S
#BEND 1SW       N/A         34  27  75  CALM    N/A
#BEND-AWBREY    N/A         44  30  58  CALM    29.87S
#BEND-KIM LN    N/A         42  31  65  S2      29.92S
#CULVER         N/A         39  32  76  CALM    29.90F
#LAKE BILLY CHINN/A         44  19  36  NW2     30.04R
#POWELL BUTTE 3EN/A         38  27  64  S3      N/A
#POWELL BUTTE   N/A         40  26  57  S1      29.57F
#PRINEVILLE 3N  N/A         34  29  82  CALM    29.87S
#WARM SPRINGS   N/A         46  33  60  CALM    29.91S

$$


ORZ509-031210-
EAST SLOPES OF OREGON CASCADES

CITY            SKY/WX      TMP DP  RH  WIND    PRES   REMARKS
#BLUE BOX PASS  N/A         44  -7  11  N2      N/A
#CAMP SHERMAN   N/A         29  24  81  CALM    29.92R
#LA PINE 4NW    N/A         27  21  78  CALM    29.93S
#SISTERS AIRPOR N/A         30  28  92  N1      30.17S
#SISTERS ODOT   N/A         32  N/A N/A CALM    N/A
#SISTERS 1NW    N/A         31  26  81  VRB5    N/A
#SISTERS 3N     N/A         30  19  63  CALM    29.99S
#SUNRIVER       N/A         34  27  75  CALM    29.78F
#TUMALO 3W      N/A         49  28  44  W5      29.75F
#WANOGA BUTTE D N/A         41  24  50  CALM    N/A

$$

ORZ044-031210-
LOWER COLUMBIA BASIN...OREGON

CITY            SKY/WX      TMP DP  RH  WIND    PRES   REMARKS
HERMISTON       CLEAR       36  33  89  CALM    29.93R
#BOARDMAN 8SW   N/A         43  31  62  CALM    29.92R
#ECHO 8SW       N/A         39  27  62  SW1     29.93S
#IONE SCHOOL    N/A         42  29  60  CALM    29.91R
#IRRIGON 4NW    N/A         42  38  86  E1      N/A
#UMATILLA SCHOOLN/A         39  38  96  S1      29.98S
#UMATILLA       N/A         69  31  24  CALM    29.85R
$$

ORZ507-031210-
NORTHERN FOOTHILLS OF THE BLUES

CITY            SKY/WX      TMP DP  RH  WIND    PRES   REMARKS
PENDLETON AIRPT CLEAR       40  31  70  SE8     29.92S
#ADAMS 3WNW     N/A         31  26  81  N2      29.93R
#ATHENA         N/A         33  28  82  CALM    29.94S
#CAYUSE         N/A         46  34  63  E8      29.91R
#HELIX SCHOOL   N/A         36  30  79  N1      29.92R
#HELIX 3N       N/A         39  30  70  CALM    29.90S
#HOLDMAN 6E     N/A         44  32  62  CALM    29.72S
#M-F FERNDALE   N/A         39  31  73  CALM    29.92R
#M-F GROVE ELEM N/A         41  28  59  CALM    29.91R
#M-FREEWATER 5SEN/A         48  30  49  CALM    29.93R
#PENDLETON DNTN N/A         38  24  57  NE2     29.93S
#PDT AQUATIC CTRN/A         39  22  50  CALM    29.92S
#PENDLETON 5NE  N/A         36  31  82  CALM    29.89S
#PDT SUNRIDGE   N/A         34  30  85  CALM    29.94S
#PENDLETON 7NW  N/A         39  30  70  CALM    29.90R
#TUTUILLA       N/A         32  28  85  CALM    29.93S
#UMAPINE 2E     N/A         38  34  85  CALM    29.90R
#WESTON SCHOOL  N/A         45  25  45  CALM    29.92R

$$

ORZ508-031210-
SOUTHERN FOOTHILLS OF THE BLUES

CITY            SKY/WX      TMP DP  RH  WIND    PRES   REMARKS
#AJAX           N/A         51  21  30  CALM    29.88S
#CONDON SCHOOL  N/A         44  28  53  CALM    29.91S
#CONDON 5W      N/A         52  22  31  E5      29.91S
#FOSSIL SCHOOL  N/A         36  28  72  CALM    29.93S
#HEPPNER EOC    N/A         43  27  53  SE7     29.85S
#HEPPNER 4NE    N/A         43  29  57  E5      29.90S
#LEXINGTON 2SE  N/A         46  29  51  SE8     29.91S
#MIKKALO        N/A         40  24  52  E5      29.93S
#OLEX 4N        N/A         42  27  55  S6      29.92S
#RUGGS 5NE      N/A         40  22  48  E2      30.07S
#RUGGS 2SW      N/A         43  25  49  S7      29.93S

$$

ORZ502-503-031210-
BLUE MOUNTAINS

CITY            SKY/WX      TMP DP  RH  WIND    PRES   REMARKS
MEACHAM         CLEAR       27  24  88  CALM    29.95S
#BATTLE MTN DOT N/A         36  31  82  CALM    N/A
#HEPPNER 15SE   N/A         35  26  69  CALM    29.85S
#LADD CYN SMT   N/A         36  26  67  CALM    N/A
#LADD CREEK ODOTN/A         38  29  70  SW2     N/A
#LONG CREEK HS  N/A         33  29  85  CALM    29.91S
#N POWDER DOT   N/A         N/A N/A N/A W2      N/A
#PIKES PEAK     N/A         52  19  27  N1      27.99S
#TOLLGATE       N/A         37  19  48  CALM    29.89F
#TROY SCHOOL    N/A         38  33  82  CALM    29.81R
#UKIAH          N/A         24  22  92  CALM    30.03R
#WESTON 4E      N/A         46  24  42  CALM    29.85S
$$

ORZ505-031210-
JOHN DAY BASIN

CITY            SKY/WX      TMP DP  RH  WIND    PRES   REMARKS
JOHN DAY        CLEAR       39  31  73  E10     29.95S
#JOHN DAY KJDY  N/A         39  33  79  CALM    30.03R
#DAYVILLE SCHOOLN/A         43  27  53  CALM    29.93R
#MITCHELL       N/A         39  30  70  E1      30.08F
#MONUMENT HS    N/A         36  29  75  CALM    29.97S
#MT. VERNON 5SE N/A         39  26  59  CALM    29.90F
#WINLOCK        N/A         40  21  46  CALM    30.02F
$$

ORZ506-031210-
OCHOCO AND JOHN DAY HIGHLANDS

CITY            SKY/WX      TMP DP  RH  WIND    PRES   REMARKS
#BUCK CREEK DOT N/A         45  45  100 CALM    N/A
#HORSE RIDGE DO N/A         25  16  68  CALM    N/A
#KEYES SMT DOT  N/A         40  25  55  NW8     N/A
#PAULINA SCHOOL N/A         58  25  28  CALM    29.92S
#PINE MTN OBS   N/A         41  26  55  CALM    N/A
#SENECA         N/A         31  N/A N/A CALM    N/A
#SENECA 9NW     N/A         27  24  88  CALM    29.86F
$$

ORZ049-031210-
GRANDE RONDE VALLEY

CITY            SKY/WX      TMP DP  RH  WIND    PRES   REMARKS
LA GRANDE       CLEAR       37  23  56  N3      29.93S
#COVE           N/A         36  30  79  CALM    29.95S
#COVE SCHOOL    N/A         34  28  78  CALM    29.92S
#ELGIN 3N       N/A         32  23  69  CALM    29.93S
#ELGIN 1E       N/A         36  29  75  CALM    N/A
#IMBLER SCHOOL  N/A         51  31  46  N3      29.91R
#ISLAND CITY 4N N/A         41  39  93  CALM    29.96S
#LADD CYN DOT   N/A         42  28  57  SE9     N/A
#LA GRANDE ELEM N/A         46  29  51  W9      29.96F
#UNION 1S       N/A         33  28  82  CALM    29.82R
$$

ORZ050-031210-
WALLOWA COUNTY

CITY            SKY/WX      TMP DP  RH  WIND    PRES   REMARKS
JOSEPH AIRPORT  PTCLDY      32  27  82  S3      29.96S
#ENTERPRISE HS  N/A         30  25  81  CALM    29.99S
#IMNAHA SCHOOL  N/A         44  34  68  S2      29.96R
#IMNAHA 10S     N/A         41  30  65  SW3     29.95S
#JOSEPH 3N      N/A         29  23  78  NE2     29.98S
#JOSEPH 3W      N/A         37  25  61  SW2     29.80S
#LOSTINE        N/A         31  26  81  CALM    29.72S
#MT HOWARD 8000 N/A         36   8  30  CALM    30.00S
#PROMISE 1S     N/A         35  29  78  CALM    30.01S
#SHEEP RDG 7000 N/A         37  24  59  CALM    29.88S
#WALLOWA SCHOOL N/A         30  26  85  CALM    30.84S



$$



USA.gov is the U.S. government's official web portal to all federal, state and local government web resources and services.